User: anonymous
Location: Clatteringshaws Loch
(55.0508°N, 4.2860°W)
Time: 10:26:42
(UTC+01:00)
Language:

Cosmos 2221 Rocket - Orbit

View from above orbital plane
View from above orbital plane
View from above satellite
View from above satellite

Ground track
Ground track

The orbit data is extracted from the following two-line orbital elements,

1 22237U 92080B   14258.16837843  .00000340  00000-0  44071-4 0  4290
2 22237 082.5143 333.3614 0018635 251.9255 135.2436 14.77898732174828
Epoch (UTC): 15 September 2014 04:02:27
Eccentricity: 0.0018635
inclination: 82.5143°
perigee height: 623 km
apogee height: 649 km
right ascension of ascending node: 333.3614°
argument of perigee: 251.9255°
revolutions per day: 14.77898732
mean anomaly at epoch: 135.2436°
orbit number at epoch: 17482

The dashed part of the orbit path shows where the satellite is in the earth's shadow,  

DLR